Reading, PA

2:02 AM EST on November 22, 2019 (GMT -0500)
Reading Regional-Spaatz

Weather History for KRDG - July, 2019

Change the Weather History Date:

Thursday, July 18, 2019

  Actual Average Record
Temperature  
Mean Temperature 81 °F 75 °F  
Max Temperature 88 °F 85 °F 100 °F (2012)
Min Temperature 74 °F 65 °F 51 °F (1976)
Degree Days  
Heating Degree Days 0 0  
Month to date heating degree days 0 0  
Since 1 June heating degree days 16 24  
Since 1 July heating degree days 0 0  
Cooling Degree Days 16 10  
Month to date cooling degree days 239 177  
Year to date cooling degree days 549 426  
Since 1 June cooling degree days 444 366  
Growing Degree Days 30 (Base 50)    
Moisture  
Dew Point 76 °F    
Average Humidity 87    
Maximum Humidity 100    
Minimum Humidity 74    
Precipitation  
Precipitation 1.49 in 0.15 in 2.50 in (1903)
Month to date precipitation 6.05 2.60  
Year to date precipitation 37.41 23.40  
Sea Level Pressure  
Sea Level Pressure 29.88 in    
Wind  
Wind Speed 3 mph (NNW)    
Max Wind Speed 21 mph    
Max Gust Speed 29 mph    
Visibility 8 miles    
Events Fog , Rain , Thunderstorm    
T = Trace of Precipitation, MM = Missing Value Source: NWS Daily Summary

Daily Weather History Graph

Daily Weather History Graph

Search for Another Location

Airport or City:

Astronomy

Jul. 18, 2019 Rise Set
Actual Time 5:48 AM EDT 8:31 PM EDT
Civil Twilight 5:16 AM EDT 9:02 PM EDT
Nautical Twilight 4:36 AM EDT 9:42 PM EDT
Astronomical Twilight 3:51 AM EDT 10:27 PM EDT
Moon 9:55 PM EDT (7/18) 7:15 AM EDT (7/18)
Length of Visible Light 15h 45m
Length of Day
14h 42m
Full, 97% of the Moon is Illuminated
Jul 18
Full
Jul 24
Last Quarter
Jul 31
New
Aug 7
First Quarter
Aug 15
Full

Hourly Weather History & Observations

Time (EDT) Temp. Heat Index Dew Point Humidity Pressure Visibility Wind Dir Wind Speed Gust Speed Precip Events Conditions
12:54 AM 73.9 °F - 73.9 °F 100% 29.88 in 10.0 mi Calm Calm - N/A   Mostly Cloudy
1:10 AM 73.9 °F - 73.9 °F 100% 29.88 in 10.0 mi South 3.5 mph - 0.00 in Rain Light Rain
1:23 AM 73.9 °F - 73.9 °F 100% 29.88 in 10.0 mi SSW 3.5 mph - 0.00 in Rain Light Rain
1:54 AM 73.9 °F - 73.9 °F 100% 29.89 in 10.0 mi Calm Calm - 0.01 in   Overcast
2:26 AM 73.9 °F - 73.9 °F 100% 29.88 in 10.0 mi SSE 3.5 mph - N/A   Mostly Cloudy
2:54 AM 73.9 °F - 73.9 °F 100% 29.88 in 10.0 mi SSE 5.8 mph - N/A   Overcast
3:54 AM 73.9 °F - 73.9 °F 100% 29.87 in 10.0 mi South 3.5 mph - N/A   Overcast
4:54 AM 73.9 °F - 73.9 °F 100% 29.88 in 10.0 mi SSE 3.5 mph - N/A   Overcast
5:30 AM 73.9 °F - 73.9 °F 100% 29.88 in 10.0 mi Calm Calm - N/A   Overcast
5:54 AM 73.9 °F - 73.9 °F 100% 29.88 in 10.0 mi Calm Calm - N/A   Overcast
6:28 AM 73.9 °F - 73.9 °F 100% 29.88 in 10.0 mi Calm Calm - 0.00 in Rain Light Rain
6:54 AM 75.0 °F - 75.0 °F 100% 29.90 in 10.0 mi NNW 3.5 mph - 0.00 in   Overcast
7:06 AM 75.0 °F - 75.0 °F 100% 29.89 in 10.0 mi North 4.6 mph - N/A   Overcast
7:36 AM 75.0 °F - 75.0 °F 100% 29.89 in 6.0 mi North 3.5 mph - N/A   Overcast
7:54 AM 75.0 °F - 75.0 °F 100% 29.90 in 6.0 mi North 3.5 mph - N/A   Overcast
8:54 AM 78.1 °F - 75.9 °F 93% 29.91 in 10.0 mi Calm Calm - N/A   Mostly Cloudy
9:54 AM 80.1 °F 85.1 °F 75.0 °F 85% 29.90 in 10.0 mi Variable 3.5 mph - N/A   Mostly Cloudy
10:08 AM 80.1 °F 85.4 °F 75.9 °F 87% 29.89 in 10.0 mi Calm Calm - N/A   Overcast
10:54 AM 80.1 °F 85.4 °F 75.9 °F 87% 29.90 in 6.0 mi Calm Calm - N/A   Haze
11:54 AM 84.0 °F 93.7 °F 77.0 °F 79% 29.89 in 10.0 mi Calm Calm - N/A   Scattered Clouds
12:44 PM 84.9 °F 95.3 °F 77.0 °F 77% 29.87 in 10.0 mi WNW 4.6 mph - N/A   Mostly Cloudy
12:54 PM 87.1 °F 99.8 °F 78.1 °F 74% 29.88 in 10.0 mi Calm Calm - N/A   Mostly Cloudy
1:21 PM 87.1 °F 99.8 °F 78.1 °F 74% 29.87 in 10.0 mi Variable 5.8 mph - N/A   Mostly Cloudy
1:28 PM 87.1 °F 99.8 °F 78.1 °F 74% 29.86 in 10.0 mi Variable 4.6 mph - N/A   Mostly Cloudy
1:54 PM 84.9 °F 94.1 °F 75.9 °F 74% 29.87 in 10.0 mi NNW 4.6 mph - N/A   Mostly Cloudy
2:01 PM 86.0 °F 96.9 °F 77.0 °F 74% 29.86 in 10.0 mi NNW 8.1 mph - N/A   Mostly Cloudy
2:54 PM 81.0 °F 88.6 °F 78.1 °F 91% 29.86 in 10.0 mi SW 4.6 mph - 0.24 in   Mostly Cloudy
3:54 PM 84.0 °F 94.8 °F 78.1 °F 82% 29.86 in 10.0 mi SSW 4.6 mph - N/A   Overcast
4:54 PM 84.0 °F 93.7 °F 77.0 °F 79% 29.86 in 10.0 mi South 5.8 mph - N/A   Mostly Cloudy
5:54 PM 86.0 °F 96.9 °F 77.0 °F 74% 29.86 in 10.0 mi SW 3.5 mph - N/A   Mostly Cloudy
6:54 PM 86.0 °F 98.3 °F 78.1 °F 77% 29.85 in 10.0 mi Calm Calm - N/A   Mostly Cloudy
7:16 PM 81.0 °F 86.7 °F 75.0 °F 82% 29.86 in 7.0 mi North 20.7 mph 28.8 mph 0.01 in Rain , Thunderstorm Thunderstorms and Rain
7:19 PM 80.1 °F 85.4 °F 75.9 °F 87% 29.86 in 1.5 mi North 20.7 mph 28.8 mph 0.08 in Rain , Thunderstorm Heavy Thunderstorms and Rain
7:25 PM 77.0 °F - 75.9 °F 96% 29.87 in 0.5 mi North 20.7 mph 28.8 mph 0.45 in Fog , Rain , Thunderstorm Heavy Thunderstorms and Rain
7:27 PM 77.0 °F - 75.9 °F 96% 29.87 in 0.5 mi North 20.7 mph 28.8 mph 0.58 in Fog , Rain , Thunderstorm Heavy Thunderstorms and Rain
7:40 PM 78.1 °F - 73.9 °F 87% 29.86 in 3.0 mi North 20.7 mph 28.8 mph 1.21 in Rain , Thunderstorm Heavy Thunderstorms and Rain
7:48 PM 78.8 °F - 75.2 °F 89% 29.86 in 2.0 mi North 20.7 mph 28.8 mph 1.21 in Rain , Thunderstorm Heavy Thunderstorms and Rain
7:54 PM 77.0 °F - 75.9 °F 96% 29.87 in 2.0 mi North 20.7 mph 28.8 mph 1.21 in Rain , Thunderstorm Heavy Thunderstorms and Rain
8:01 PM 75.9 °F - 75.9 °F 100% 29.87 in 5.0 mi SW 4.6 mph - 0.00 in Rain Light Rain
8:54 PM 75.9 °F - 75.9 °F 100% 29.87 in 8.0 mi Calm Calm - 0.03 in   Mostly Cloudy
9:54 PM 75.9 °F - 75.9 °F 100% 29.88 in 8.0 mi Calm Calm - N/A   Partly Cloudy
10:54 PM 75.9 °F - 75.9 °F 100% 29.89 in 10.0 mi Calm Calm - N/A   Clear
11:54 PM 75.9 °F - 75.9 °F 100% 29.90 in 10.0 mi Calm Calm - N/A   Clear